QPF
0.00 0.00 0.00 0.00 0.00 0.00 0.00 0.00 0.00 0.01 0.01 0.01 0.02 0.01 0.01 0.02 0.03 0.02 0.02 0.02 0.01 0.01 0.01 0.02 0.02 0.04 0.04 0.03 0.02 0.02 0.02 0.02 0.03 0.05 0.05 0.05 0.04 0.04 0.05 0.05 0.05 0.05 0.05 0.04
0.00 0.00 0.00 0.00 0.00 0.00 0.00 0.00 0.00 0.01 0.01 0.01 0.01 0.01 0.02 0.03 0.04 0.04 0.04 0.02 0.01 0.01 0.01 0.01 0.02 0.02 0.03 0.02 0.02 0.03 0.03 0.02 0.02 0.03 0.04 0.04 0.04 0.03 0.03 0.04 0.05 0.05 0.05 0.04
0.00 0.00 0.00 0.00 0.00 0.00 0.00 0.00 0.01 0.01 0.02 0.01 0.01 0.01 0.02 0.03 0.05 0.08 0.08 0.05 0.03 0.01 0.01 0.01 0.01 0.01 0.02 0.03 0.04 0.04 0.03 0.02 0.02 0.03 0.04 0.04 0.04 0.04 0.04 0.04 0.05 0.05 0.05 0.05
0.00 0.00 0.00 0.00 0.00 0.00 0.00 0.00 0.00 0.00 0.01 0.01 0.01 0.02 0.03 0.05 0.04 0.07 0.14 0.10 0.04 0.02 0.01 0.01 0.00 0.01 0.02 0.03 0.06 0.07 0.03 0.03 0.03 0.03 0.03 0.03 0.03 0.03 0.04 0.04 0.04 0.04 0.04 0.05
0.00 0.00 0.00 0.00 0.00 0.00 0.00 0.00 0.00 0.00 0.00 0.01 0.01 0.02 0.07 0.07 0.07 0.07 0.08 0.09 0.05 0.02 0.01 0.01 0.01 0.01 0.01 0.03 0.10 0.10 0.05 0.05 0.05 0.05 0.05 0.04 0.04 0.03 0.03 0.04 0.03 0.03 0.03 0.05
0.00 0.00 0.00 0.00 0.00 0.00 0.00 0.00 0.00 0.00 0.01 0.01 0.00 0.01 0.03 0.05 0.05 0.05 0.05 0.05 0.04 0.02 0.01 0.01 0.02 0.01 0.01 0.02 0.10 0.10 0.05 0.05 0.05 0.06 0.06 0.06 0.06 0.05 0.04 0.03 0.03 0.03 0.04 0.04
0.00 0.00 0.00 0.01 0.01 0.00 0.00 0.00 0.00 0.00 0.01 0.01 0.00 0.01 0.01 0.02 0.03 0.04 0.05 0.04 0.03 0.02 0.01 0.01 0.03 0.01 0.00 0.01 0.03 0.06 0.04 0.04 0.05 0.05 0.06 0.07 0.06 0.06 0.05 0.03 0.03 0.03 0.03 0.03
0.00 0.00 0.00 0.00 0.02 0.01 0.00 0.00 0.00 0.00 0.00 0.01 0.01 0.01 0.02 0.05 0.06 0.04 0.04 0.03 0.02 0.02 0.02 0.04 0.03 0.01 0.01 0.01 0.01 0.02 0.02 0.03 0.04 0.05 0.05 0.05 0.05 0.05 0.05 0.05 0.04 0.04 0.03 0.02
0.00 0.00 0.00 0.00 0.01 0.01 0.00 0.00 0.00 0.00 0.00 0.01 0.02 0.03 0.04 0.05 0.07 0.05 0.03 0.03 0.03 0.02 0.03 0.03 0.03 0.01 0.01 0.01 0.01 0.01 0.01 0.01 0.02 0.04 0.04 0.04 0.03 0.04 0.04 0.05 0.06 0.04 0.04 0.05
0.00 0.00 0.00 0.00 0.00 0.01 0.01 0.00 0.00 0.00 0.01 0.02 0.03 0.03 0.06 0.05 0.04 0.04 0.04 0.03 0.03 0.02 0.04 0.03 0.02 0.01 0.01 0.01 0.01 0.01 0.01 0.02 0.03 0.03 0.02 0.02 0.02 0.03 0.03 0.05 0.05 0.06 0.07 0.07
0.00 0.00 0.00 0.00 0.00 0.00 0.00 0.00 0.00 0.00 0.01 0.02 0.03 0.03 0.03 0.03 0.05 0.07 0.08 0.04 0.03 0.02 0.03 0.03 0.03 0.02 0.01 0.01 0.01 0.01 0.02 0.02 0.02 0.03 0.03 0.03 0.03 0.04 0.04 0.04 0.04 0.05 0.06 0.06
0.00 0.00 0.00 0.00 0.00 0.00 0.00 0.00 0.00 0.00 0.00 0.00 0.01 0.01 0.02 0.02 0.04 0.08 0.10 0.05 0.03 0.02 0.02 0.02 0.01 0.02 0.02 0.02 0.02 0.02 0.02 0.02 0.03 0.03 0.03 0.03 0.05 0.06 0.05 0.04 0.03 0.04 0.06 0.07
0.00 0.00 0.00 0.00 0.00 0.00 0.00 0.00 0.00 0.00 0.00 0.00 0.00 0.01 0.01 0.01 0.03 0.04 0.07 0.06 0.03 0.02 0.02 0.03 0.02 0.02 0.02 0.02 0.02 0.02 0.02 0.01 0.02 0.03 0.03 0.03 0.04 0.04 0.04 0.04 0.04 0.05 0.05 0.07
0.00 0.00 0.00 0.00 0.00 0.00 0.00 0.00 0.00 0.00 0.00 0.00 0.00 0.01 0.02 0.03 0.02 0.03 0.06 0.05 0.02 0.01 0.01 0.02 0.01 0.01 0.01 0.01 0.01 0.01 0.01 0.01 0.02 0.02 0.03 0.03 0.03 0.03 0.03 0.04 0.04 0.04 0.04 0.06
0.00 0.00 0.00 0.00 0.00 0.00 0.00 0.00 0.00 0.00 0.00 0.00 0.00 0.01 0.01 0.03 0.03 0.04 0.04 0.03 0.02 0.01 0.01 0.01 0.01 0.01 0.01 0.01 0.01 0.01 0.01 0.02 0.02 0.02 0.02 0.02 0.03 0.02 0.02 0.03 0.03 0.03 0.03 0.06
0.00 0.00 0.00 0.00 0.00 0.00 0.00 0.00 0.00 0.00 0.00 0.00 0.00 0.00 0.01 0.02 0.05 0.04 0.02 0.02 0.02 0.02 0.02 0.01 0.01 0.01 0.01 0.01 0.01 0.02 0.03 0.03 0.04 0.03 0.03 0.03 0.03 0.02 0.02 0.04 0.05 0.04 0.03 0.04
0.00 0.00 0.00 0.00 0.00 0.00 0.00 0.00 0.00 0.00 0.00 0.00 0.00 0.00 0.01 0.01 0.02 0.02 0.02 0.02 0.02 0.02 0.02 0.02 0.01 0.01 0.03 0.03 0.03 0.03 0.04 0.04 0.04 0.05 0.05 0.05 0.05 0.04 0.03 0.04 0.05 0.05 0.05 0.06
0.00 0.00 0.00 0.00 0.00 0.00 0.00 0.00 0.00 0.00 0.00 0.00 0.00 0.01 0.01 0.02 0.02 0.05 0.04 0.02 0.01 0.01 0.01 0.01 0.02 0.03 0.04 0.04 0.05 0.05 0.04 0.05 0.05 0.05 0.05 0.05 0.06 0.06 0.05 0.04 0.05 0.05 0.06 0.07
0.00 0.00 0.00 0.00 0.00 0.00 0.00 0.00 0.00 0.00 0.01 0.01 0.02 0.03 0.02 0.02 0.03 0.03 0.03 0.02 0.01 0.01 0.01 0.02 0.03 0.03 0.04 0.04 0.06 0.08 0.05 0.04 0.04 0.04 0.05 0.06 0.07 0.07 0.06 0.08 0.08 0.05 0.05 0.05
0.00 0.00 0.00 0.00 0.00 0.00 0.00 0.01 0.01 0.00 0.01 0.01 0.03 0.03 0.02 0.02 0.03 0.03 0.03 0.02 0.02 0.01 0.01 0.02 0.02 0.02 0.02 0.03 0.04 0.07 0.07 0.06 0.07 0.07 0.07 0.07 0.06 0.05 0.04 0.04 0.05 0.05 0.06 0.06
0.00 0.00 0.00 0.00 0.00 0.00 0.00 0.01 0.01 0.02 0.03 0.03 0.04 0.03 0.02 0.02 0.03 0.05 0.07 0.07 0.04 0.01 0.01 0.01 0.01 0.02 0.02 0.02 0.03 0.03 0.04 0.05 0.07 0.07 0.07 0.08 0.07 0.05 0.03 0.04 0.05 0.05 0.04 0.04
0.01 0.01 0.01 0.00 0.01 0.01 0.01 0.01 0.01 0.02 0.02 0.03 0.04 0.05 0.04 0.02 0.03 0.04 0.04 0.04 0.02 0.02 0.02 0.02 0.02 0.03 0.03 0.03 0.03 0.04 0.07 0.09 0.09 0.08 0.07 0.06 0.05 0.05 0.06 0.07 0.07 0.06 0.05 0.05
0.01 0.01 0.02 0.02 0.02 0.02 0.01 0.01 0.01 0.02 0.03 0.04 0.07 0.06 0.05 0.04 0.04 0.03 0.03 0.02 0.02 0.03 0.03 0.03 0.03 0.03 0.03 0.04 0.05 0.07 0.10 0.12 0.14 0.12 0.09 0.06 0.04 0.04 0.04 0.06 0.07 0.07 0.04 0.02
0.01 0.02 0.03 0.03 0.03 0.02 0.02 0.02 0.01 0.02 0.03 0.06 0.11 0.10 0.10 0.10 0.10 0.09 0.08 0.06 0.08 0.08 0.06 0.04 0.03 0.02 0.02 0.03 0.05 0.08 0.09 0.10 0.10 0.11 0.09 0.06 0.04 0.04 0.04 0.04 0.04 0.03 0.02 0.02
0.02 0.03 0.04 0.04 0.04 0.04 0.04 0.04 0.04 0.08 0.08 0.07 0.06 0.05 0.07 0.10 0.13 0.14 0.11 0.11 0.13 0.10 0.07 0.04 0.03 0.02 0.03 0.03 0.04 0.05 0.05 0.05 0.05 0.06 0.06 0.05 0.04 0.04 0.03 0.03 0.03 0.03 0.02 0.03
0.06 0.08 0.07 0.05 0.04 0.05 0.05 0.06 0.07 0.11 0.15 0.14 0.09 0.04 0.04 0.05 0.06 0.05 0.05 0.05 0.07 0.06 0.05 0.03 0.02 0.02 0.02 0.02 0.02 0.02 0.03 0.03 0.02 0.02 0.02 0.03 0.04 0.05 0.04 0.05 0.04 0.04 0.03 0.03
MSLP
1010.86 1011.68 1012.20 1012.41 1012.35 1012.13 1011.89 1011.74 1011.78 1012.04 1012.51 1013.11 1013.73 1014.29 1014.69 1014.88 1014.87 1014.70 1014.44 1014.17 1013.94 1013.81 1013.77 1013.83 1013.94 1014.08 1014.21 1014.34 1014.46 1014.59 1014.77 1015.01 1015.30 1015.62 1015.95 1016.24 1016.45 1016.54 1016.52 1016.41 1016.24 1016.07 1015.94 1015.88
1011.67 1012.27 1012.57 1012.57 1012.37 1012.11 1011.92 1011.92 1012.18 1012.71 1013.43 1014.23 1015.00 1015.62 1016.00 1016.10 1015.97 1015.66 1015.26 1014.87 1014.56 1014.35 1014.25 1014.25 1014.29 1014.35 1014.39 1014.41 1014.45 1014.53 1014.68 1014.93 1015.27 1015.67 1016.09 1016.46 1016.72 1016.85 1016.83 1016.67 1016.44 1016.19 1015.99 1015.87
1012.19 1012.55 1012.61 1012.42 1012.12 1011.87 1011.79 1012.00 1012.53 1013.35 1014.33 1015.35 1016.25 1016.91 1017.25 1017.26 1016.99 1016.53 1016.01 1015.52 1015.13 1014.88 1014.76 1014.73 1014.75 1014.75 1014.72 1014.67 1014.63 1014.64 1014.75 1014.98 1015.34 1015.78 1016.24 1016.66 1016.97 1017.12 1017.09 1016.91 1016.63 1016.33 1016.06 1015.88
1012.42 1012.53 1012.37 1012.03 1011.69 1011.50 1011.59 1012.06 1012.90 1014.02 1015.27 1016.48 1017.49 1018.16 1018.43 1018.31 1017.89 1017.29 1016.64 1016.06 1015.62 1015.36 1015.25 1015.23 1015.25 1015.24 1015.18 1015.08 1014.97 1014.91 1014.96 1015.15 1015.47 1015.90 1016.37 1016.81 1017.13 1017.29 1017.26 1017.07 1016.77 1016.42 1016.11 1015.89
1012.42 1012.29 1011.95 1011.52 1011.20 1011.13 1011.46 1012.21 1013.36 1014.78 1016.27 1017.64 1018.71 1019.35 1019.52 1019.25 1018.66 1017.90 1017.13 1016.47 1015.99 1015.74 1015.66 1015.69 1015.75 1015.76 1015.70 1015.57 1015.41 1015.28 1015.25 1015.36 1015.62 1016.00 1016.44 1016.85 1017.16 1017.32 1017.29 1017.11 1016.80 1016.45 1016.12 1015.88
1012.30 1011.96 1011.48 1011.03 1010.78 1010.89 1011.46 1012.52 1013.96 1015.63 1017.31 1018.78 1019.86 1020.44 1020.48 1020.04 1019.27 1018.35 1017.46 1016.72 1016.23 1015.99 1015.97 1016.06 1016.18 1016.24 1016.20 1016.05 1015.85 1015.66 1015.55 1015.57 1015.74 1016.03 1016.40 1016.76 1017.05 1017.20 1017.18 1017.00 1016.72 1016.38 1016.06 1015.81
1012.15 1011.65 1011.11 1010.68 1010.55 1010.86 1011.68 1012.99 1014.68 1016.53 1018.33 1019.83 1020.86 1021.33 1021.21 1020.60 1019.67 1018.61 1017.62 1016.83 1016.33 1016.12 1016.15 1016.31 1016.50 1016.61 1016.60 1016.46 1016.23 1015.98 1015.79 1015.71 1015.78 1015.97 1016.25 1016.55 1016.79 1016.92 1016.91 1016.76 1016.50 1016.20 1015.90 1015.66
1012.07 1011.49 1010.93 1010.57 1010.58 1011.07 1012.09 1013.59 1015.43 1017.37 1019.18 1020.64 1021.57 1021.89 1021.62 1020.85 1019.79 1018.63 1017.58 1016.77 1016.28 1016.11 1016.20 1016.43 1016.68 1016.84 1016.86 1016.73 1016.49 1016.20 1015.93 1015.76 1015.73 1015.82 1016.01 1016.22 1016.42 1016.52 1016.51 1016.39 1016.17 1015.91 1015.64 1015.42
1012.13 1011.51 1010.99 1010.72 1010.85 1011.48 1012.62 1014.21 1016.07 1017.99 1019.72 1021.05 1021.84 1022.01 1021.60 1020.72 1019.58 1018.39 1017.33 1016.54 1016.10 1015.98 1016.13 1016.42 1016.71 1016.92 1016.97 1016.86 1016.61 1016.29 1015.97 1015.74 1015.61 1015.61 1015.71 1015.85 1015.99 1016.06 1016.04 1015.93 1015.75 1015.52 1015.29 1015.09
1012.31 1011.73 1011.28 1011.10 1011.33 1012.02 1013.18 1014.72 1016.49 1018.25 1019.80 1020.94 1021.54 1021.56 1021.06 1020.14 1019.01 1017.86 1016.88 1016.17 1015.81 1015.76 1015.97 1016.30 1016.63 1016.87 1016.95 1016.85 1016.61 1016.28 1015.95 1015.67 1015.49 1015.41 1015.43 1015.50 1015.58 1015.61 1015.57 1015.46 1015.28 1015.08 1014.87 1014.69
1012.60 1012.11 1011.75 1011.64 1011.90 1012.57 1013.63 1015.01 1016.54 1018.04 1019.31 1020.21 1020.62 1020.53 1019.99 1019.11 1018.09 1017.08 1016.25 1015.69 1015.44 1015.49 1015.76 1016.13 1016.48 1016.74 1016.83 1016.75 1016.54 1016.23 1015.90 1015.61 1015.40 1015.29 1015.24 1015.25 1015.26 1015.23 1015.15 1015.02 1014.83 1014.63 1014.43 1014.26
1012.96 1012.57 1012.30 1012.25 1012.48 1013.04 1013.90 1015.00 1016.20 1017.35 1018.30 1018.92 1019.16 1018.99 1018.48 1017.73 1016.90 1016.11 1015.51 1015.15 1015.06 1015.22 1015.55 1015.94 1016.31 1016.57 1016.68 1016.63 1016.45 1016.18 1015.89 1015.63 1015.42 1015.29 1015.20 1015.14 1015.08 1014.99 1014.85 1014.66 1014.44 1014.21 1014.00 1013.83
1013.35 1013.08 1012.89 1012.85 1013.00 1013.38 1013.97 1014.71 1015.51 1016.27 1016.87 1017.23 1017.31 1017.12 1016.71 1016.15 1015.58 1015.08 1014.75 1014.63 1014.73 1015.00 1015.39 1015.80 1016.16 1016.42 1016.54 1016.52 1016.39 1016.19 1015.96 1015.75 1015.57 1015.44 1015.32 1015.21 1015.08 1014.91 1014.69 1014.43 1014.16 1013.88 1013.64 1013.45
1013.76 1013.60 1013.46 1013.39 1013.43 1013.58 1013.85 1014.21 1014.60 1014.95 1015.21 1015.34 1015.31 1015.15 1014.88 1014.57 1014.30 1014.12 1014.09 1014.22 1014.50 1014.88 1015.31 1015.73 1016.08 1016.32 1016.45 1016.46 1016.39 1016.27 1016.12 1015.98 1015.85 1015.73 1015.60 1015.45 1015.25 1014.99 1014.68 1014.34 1014.00 1013.67 1013.38 1013.16
1014.20 1014.11 1014.00 1013.88 1013.76 1013.68 1013.63 1013.61 1013.60 1013.60 1013.57 1013.51 1013.42 1013.31 1013.22 1013.18 1013.22 1013.36 1013.62 1013.98 1014.41 1014.88 1015.34 1015.75 1016.07 1016.29 1016.42 1016.47 1016.46 1016.41 1016.36 1016.30 1016.22 1016.13 1015.99 1015.80 1015.53 1015.20 1014.81 1014.39 1013.96 1013.57 1013.24 1012.99
1014.68 1014.63 1014.50 1014.30 1014.03 1013.72 1013.37 1013.03 1012.69 1012.39 1012.14 1011.95 1011.84 1011.82 1011.92 1012.13 1012.46 1012.88 1013.38 1013.93 1014.49 1015.01 1015.47 1015.84 1016.12 1016.32 1016.44 1016.52 1016.57 1016.60 1016.63 1016.65 1016.64 1016.57 1016.43 1016.21 1015.89 1015.49 1015.02 1014.53 1014.04 1013.60 1013.22 1012.93
1015.21 1015.14 1014.96 1014.66 1014.25 1013.73 1013.16 1012.56 1011.98 1011.46 1011.06 1010.81 1010.72 1010.81 1011.07 1011.51 1012.07 1012.71 1013.40 1014.07 1014.70 1015.24 1015.67 1015.99 1016.23 1016.39 1016.50 1016.60 1016.70 1016.80 1016.91 1016.99 1017.03 1016.99 1016.85 1016.61 1016.25 1015.80 1015.28 1014.74 1014.20 1013.71 1013.30 1012.97
1015.76 1015.63 1015.36 1014.96 1014.41 1013.74 1013.00 1012.23 1011.50 1010.87 1010.40 1010.14 1010.10 1010.29 1010.71 1011.31 1012.03 1012.82 1013.61 1014.35 1014.99 1015.51 1015.90 1016.17 1016.35 1016.47 1016.58 1016.69 1016.83 1016.99 1017.15 1017.28 1017.35 1017.33 1017.20 1016.94 1016.56 1016.07 1015.53 1014.95 1014.40 1013.89 1013.45 1013.09
1016.29 1016.04 1015.66 1015.14 1014.48 1013.71 1012.87 1012.02 1011.23 1010.57 1010.11 1009.88 1009.91 1010.20 1010.72 1011.43 1012.25 1013.11 1013.94 1014.69 1015.30 1015.78 1016.11 1016.32 1016.46 1016.56 1016.65 1016.78 1016.94 1017.13 1017.33 1017.49 1017.58 1017.57 1017.43 1017.16 1016.77 1016.28 1015.72 1015.15 1014.59 1014.07 1013.62 1013.24
1016.70 1016.31 1015.80 1015.18 1014.43 1013.60 1012.73 1011.87 1011.10 1010.48 1010.07 1009.91 1010.01 1010.38 1010.97 1011.73 1012.58 1013.45 1014.27 1014.99 1015.56 1015.99 1016.27 1016.44 1016.55 1016.63 1016.73 1016.87 1017.04 1017.25 1017.45 1017.62 1017.71 1017.69 1017.55 1017.27 1016.87 1016.39 1015.85 1015.29 1014.74 1014.24 1013.78 1013.38
1016.92 1016.38 1015.74 1015.02 1014.22 1013.37 1012.52 1011.71 1011.01 1010.48 1010.16 1010.09 1010.27 1010.68 1011.30 1012.07 1012.91 1013.75 1014.53 1015.19 1015.72 1016.11 1016.36 1016.51 1016.62 1016.71 1016.82 1016.97 1017.15 1017.35 1017.55 1017.69 1017.76 1017.72 1017.56 1017.27 1016.88 1016.40 1015.88 1015.35 1014.83 1014.34 1013.90 1013.49
1016.90 1016.21 1015.45 1014.66 1013.83 1013.01 1012.22 1011.51 1010.92 1010.51 1010.30 1010.31 1010.55 1011.00 1011.62 1012.36 1013.16 1013.94 1014.66 1015.28 1015.77 1016.14 1016.39 1016.56 1016.69 1016.81 1016.94 1017.10 1017.28 1017.47 1017.63 1017.74 1017.76 1017.68 1017.49 1017.19 1016.79 1016.34 1015.84 1015.34 1014.85 1014.38 1013.94 1013.53
1016.62 1015.80 1014.96 1014.12 1013.31 1012.55 1011.85 1011.27 1010.82 1010.53 1010.43 1010.53 1010.82 1011.28 1011.88 1012.57 1013.30 1014.02 1014.68 1015.26 1015.73 1016.11 1016.39 1016.60 1016.77 1016.94 1017.10 1017.27 1017.45 1017.61 1017.73 1017.78 1017.75 1017.61 1017.38 1017.05 1016.65 1016.20 1015.72 1015.25 1014.78 1014.34 1013.91 1013.50
1016.12 1015.22 1014.33 1013.50 1012.73 1012.06 1011.49 1011.04 1010.74 1010.59 1010.59 1010.76 1011.08 1011.53 1012.08 1012.71 1013.37 1014.03 1014.64 1015.19 1015.66 1016.06 1016.39 1016.66 1016.90 1017.12 1017.32 1017.50 1017.66 1017.78 1017.84 1017.83 1017.73 1017.53 1017.25 1016.89 1016.47 1016.02 1015.56 1015.10 1014.65 1014.22 1013.80 1013.38
1015.47 1014.54 1013.66 1012.88 1012.20 1011.65 1011.22 1010.92 1010.76 1010.73 1010.83 1011.04 1011.37 1011.80 1012.30 1012.86 1013.44 1014.03 1014.60 1015.13 1015.62 1016.05 1016.44 1016.78 1017.08 1017.35 1017.58 1017.77 1017.90 1017.98 1017.98 1017.89 1017.71 1017.45 1017.11 1016.72 1016.28 1015.82 1015.36 1014.91 1014.47 1014.04 1013.62 1013.20
1014.78 1013.88 1013.07 1012.38 1011.82 1011.41 1011.13 1010.99 1010.96 1011.04 1011.20 1011.45 1011.78 1012.17 1012.61 1013.09 1013.60 1014.12 1014.65 1015.16 1015.66 1016.12 1016.56 1016.96 1017.31 1017.61 1017.86 1018.05 1018.15 1018.18 1018.11 1017.96 1017.71 1017.39 1017.00 1016.56 1016.10 1015.63 1015.16 1014.71 1014.27 1013.84 1013.41 1012.98
Thickness
5849 5830 5817 5826 5834 5831 5828 5820 5815 5823 5840 5829 5819 5814 5817 5822 5817 5811 5808 5806 5803 5802 5802 5800 5797 5794 5789 5784 5780 5776 5772 5769 5766 5763 5760 5758 5756 5756 5757 5758 5758 5757 5757 5756
5822 5818 5837 5848 5847 5840 5831 5817 5815 5824 5838 5826 5813 5810 5817 5820 5816 5813 5810 5807 5804 5801 5800 5799 5796 5793 5788 5784 5781 5777 5774 5770 5768 5765 5763 5761 5759 5757 5757 5758 5757 5757 5757 5756
5814 5828 5850 5846 5839 5832 5826 5818 5816 5817 5826 5824 5811 5796 5804 5814 5819 5816 5814 5811 5807 5804 5800 5797 5795 5791 5788 5785 5782 5779 5775 5772 5769 5767 5764 5761 5758 5756 5755 5755 5755 5757 5757 5756
5822 5840 5844 5837 5834 5833 5817 5837 5834 5826 5807 5792 5801 5769 5788 5800 5805 5808 5808 5806 5805 5806 5803 5798 5796 5792 5789 5787 5785 5781 5777 5773 5771 5768 5764 5759 5755 5752 5754 5755 5755 5756 5757 5756
5817 5836 5835 5829 5837 5841 5832 5845 5836 5825 5805 5789 5790 5773 5778 5795 5793 5799 5805 5807 5807 5807 5804 5799 5797 5794 5792 5789 5785 5782 5778 5774 5772 5769 5766 5761 5757 5756 5756 5755 5754 5754 5755 5756
5826 5844 5844 5842 5850 5850 5847 5832 5819 5803 5788 5768 5783 5774 5772 5786 5796 5801 5805 5808 5808 5807 5805 5801 5799 5795 5791 5789 5785 5781 5777 5774 5772 5769 5766 5762 5759 5756 5754 5753 5752 5752 5753 5754
5810 5827 5844 5851 5836 5837 5831 5795 5768 5765 5753 5759 5783 5777 5778 5805 5814 5813 5810 5809 5808 5807 5803 5799 5795 5792 5790 5787 5784 5781 5776 5772 5771 5768 5765 5763 5760 5757 5754 5753 5751 5750 5750 5750
5784 5789 5826 5842 5833 5821 5818 5797 5764 5751 5747 5756 5776 5771 5789 5816 5822 5823 5819 5814 5810 5805 5803 5801 5798 5795 5791 5788 5785 5781 5776 5773 5770 5768 5765 5763 5760 5757 5755 5754 5752 5750 5749 5750
5781 5788 5829 5843 5847 5835 5815 5799 5796 5768 5761 5750 5759 5775 5795 5813 5812 5813 5813 5810 5807 5805 5804 5802 5800 5797 5793 5789 5786 5782 5777 5773 5770 5767 5764 5762 5759 5757 5754 5753 5752 5751 5750 5750
5798 5789 5812 5834 5841 5837 5828 5813 5785 5766 5747 5739 5751 5761 5769 5789 5797 5805 5806 5805 5805 5806 5805 5804 5801 5798 5794 5791 5787 5783 5778 5773 5770 5767 5764 5761 5758 5756 5754 5752 5750 5749 5749 5749
5802 5784 5793 5810 5811 5810 5815 5808 5786 5765 5761 5742 5735 5753 5798 5798 5803 5804 5807 5808 5808 5807 5806 5803 5801 5798 5794 5790 5786 5781 5777 5773 5769 5766 5763 5760 5757 5755 5752 5750 5749 5748 5747 5746
5798 5778 5771 5792 5819 5831 5820 5809 5790 5768 5760 5755 5746 5761 5815 5812 5810 5809 5809 5810 5809 5808 5806 5804 5801 5796 5792 5787 5784 5780 5776 5772 5769 5766 5762 5759 5756 5753 5750 5748 5746 5745 5744 5742
5795 5771 5755 5765 5786 5808 5811 5812 5802 5784 5766 5753 5747 5766 5810 5810 5808 5811 5811 5810 5809 5807 5804 5801 5797 5793 5789 5786 5782 5779 5775 5771 5768 5765 5761 5757 5753 5750 5747 5745 5744 5743 5741 5738
5801 5769 5758 5754 5766 5788 5797 5806 5806 5786 5763 5759 5765 5776 5795 5801 5803 5807 5808 5809 5807 5804 5802 5797 5792 5789 5787 5784 5780 5776 5773 5770 5767 5762 5758 5753 5750 5748 5745 5743 5741 5739 5737 5734
5787 5766 5773 5779 5792 5799 5799 5803 5805 5796 5785 5775 5779 5784 5796 5805 5808 5809 5809 5807 5804 5799 5797 5794 5790 5787 5784 5781 5777 5774 5771 5768 5765 5759 5755 5752 5750 5747 5743 5740 5737 5735 5733 5730
5771 5763 5767 5772 5790 5794 5794 5802 5804 5802 5800 5794 5791 5789 5808 5811 5809 5806 5805 5803 5799 5797 5795 5793 5790 5785 5782 5778 5775 5772 5768 5765 5762 5757 5752 5750 5747 5743 5739 5736 5733 5731 5728 5725
5755 5753 5746 5748 5770 5779 5770 5793 5800 5800 5805 5800 5786 5795 5805 5802 5802 5802 5802 5801 5798 5796 5794 5790 5787 5784 5780 5777 5774 5769 5765 5762 5757 5753 5749 5746 5743 5739 5736 5733 5729 5725 5722 5720
5751 5741 5732 5736 5750 5740 5769 5804 5808 5802 5803 5806 5804 5805 5806 5805 5804 5805 5804 5799 5796 5794 5791 5788 5785 5782 5779 5777 5773 5768 5762 5757 5752 5747 5744 5741 5738 5734 5731 5728 5724 5721 5718 5715
5756 5741 5726 5720 5726 5741 5773 5796 5801 5791 5785 5800 5799 5799 5801 5801 5796 5792 5799 5800 5795 5793 5790 5787 5784 5781 5776 5772 5768 5762 5756 5751 5746 5742 5739 5736 5734 5730 5726 5722 5719 5716 5713 5709
5746 5742 5726 5718 5721 5724 5757 5793 5807 5795 5769 5794 5798 5793 5793 5792 5773 5776 5791 5794 5791 5788 5786 5783 5780 5776 5770 5766 5762 5756 5750 5745 5741 5738 5736 5732 5729 5724 5720 5717 5714 5711 5707 5703
5721 5719 5716 5714 5716 5732 5768 5790 5796 5761 5761 5789 5795 5794 5792 5786 5786 5788 5789 5787 5786 5783 5780 5778 5773 5767 5763 5760 5755 5748 5743 5739 5737 5734 5730 5726 5723 5719 5715 5711 5707 5703 5700 5696
5708 5705 5706 5707 5708 5722 5770 5778 5770 5769 5785 5788 5788 5788 5786 5785 5784 5782 5780 5778 5777 5774 5773 5770 5765 5759 5756 5753 5748 5741 5736 5735 5731 5727 5723 5719 5715 5712 5708 5703 5699 5695 5691 5686
5708 5714 5713 5715 5720 5745 5762 5768 5777 5783 5781 5782 5782 5782 5782 5777 5774 5773 5770 5768 5767 5765 5763 5761 5756 5750 5747 5744 5741 5734 5730 5728 5725 5719 5715 5710 5707 5703 5700 5695 5691 5686 5683 5679
5708 5718 5715 5716 5728 5743 5754 5764 5772 5779 5779 5780 5781 5779 5777 5770 5767 5764 5762 5758 5757 5755 5752 5750 5746 5741 5737 5735 5733 5728 5725 5721 5717 5711 5706 5702 5697 5693 5690 5687 5683 5679 5675 5671
5698 5705 5705 5708 5722 5733 5743 5752 5761 5766 5770 5771 5771 5772 5770 5766 5760 5756 5752 5749 5748 5744 5742 5741 5737 5732 5729 5726 5723 5721 5717 5714 5708 5703 5699 5694 5690 5685 5680 5676 5672 5669 5666 5664
5692 5694 5694 5700 5717 5719 5727 5743 5754 5754 5756 5758 5758 5757 5759 5758 5752 5748 5743 5741 5739 5736 5734 5731 5727 5723 5720 5718 5714 5712 5710 5706 5700 5694 5690 5686 5681 5676 5672 5667 5662 5658 5657 5655